Wetbulb
54.00 54.29 54.18 54.08 54.40 54.60 54.52 54.42 54.77 54.96 55.50 56.00 55.98 55.64 55.64 55.40 55.68 54.84 52.41 57.35 60.97 64.57 64.24 60.48 63.62 63.50 64.00 62.83 62.46 57.62 50.06 49.42 51.81 52.63 54.17 57.97 56.68 59.34 61.20 59.52 60.03 60.90 60.82 62.20 64.14
53.36 53.65 54.07 54.29 54.34 54.30 54.40 54.55 54.50 54.56 54.90 54.94 55.40 55.70 55.79 55.94 52.45 52.13 58.91 65.74 66.19 66.20 56.31 56.20 59.49 60.75 58.61 57.64 59.47 55.45 50.64 50.69 55.70 56.51 55.75 57.53 57.90 58.29 58.53 58.76 59.01 60.37 62.87 63.35 63.47
52.91 53.32 53.77 53.92 54.30 54.35 54.46 54.52 54.52 54.58 54.64 54.70 54.60 54.88 55.90 55.25 51.19 51.79 62.26 64.87 65.10 63.82 55.51 55.75 56.78 59.39 56.22 56.94 55.99 55.69 51.74 54.28 55.92 58.07 58.57 57.90 58.03 59.78 58.03 57.16 59.38 59.42 60.96 62.49 62.54
53.25 53.57 53.75 54.00 54.26 54.34 54.35 54.63 54.70 54.48 54.50 54.49 54.45 54.66 55.44 53.30 43.50 56.16 63.25 61.91 62.57 57.77 54.58 52.83 51.85 50.28 53.40 53.94 56.57 52.57 55.57 56.33 56.59 57.81 57.76 57.15 58.94 57.76 58.27 58.73 61.16 61.32 62.89 62.58 62.18
53.05 53.31 53.66 53.80 54.10 54.65 54.27 54.16 54.63 54.59 54.20 54.02 54.15 54.25 52.77 46.56 48.16 56.71 64.51 63.12 57.56 57.24 55.92 54.36 51.41 50.18 48.84 53.73 55.80 53.82 54.73 56.31 57.54 57.94 57.96 58.68 57.27 57.27 57.62 60.35 61.68 61.44 62.47 62.15 62.34
53.55 53.42 53.44 53.50 53.73 54.16 54.58 54.35 54.37 54.57 53.99 53.90 54.25 53.87 49.97 41.51 53.87 55.47 56.13 55.48 55.67 55.00 55.03 56.78 55.13 53.40 51.16 51.83 53.10 56.17 55.64 55.46 56.63 56.67 57.23 55.72 56.07 56.82 57.78 60.60 60.28 61.06 61.43 61.75 62.25
53.99 53.85 53.07 53.34 53.53 53.86 54.47 54.16 53.68 53.95 53.66 54.07 54.38 53.38 47.54 45.50 53.24 54.19 53.68 53.01 54.34 54.45 52.76 55.57 56.68 54.41 53.36 50.49 54.13 54.39 52.80 55.06 55.70 56.13 55.84 57.42 54.36 54.96 58.25 59.42 59.10 60.04 60.66 61.43 62.11
53.83 53.68 53.68 53.48 53.71 54.10 54.24 53.83 53.45 53.56 53.65 54.14 54.62 52.18 44.03 52.17 53.53 52.07 52.85 51.80 52.83 52.53 52.46 54.56 55.74 53.69 52.86 54.20 52.22 50.80 51.52 48.53 53.62 55.02 55.83 55.58 49.51 56.09 58.88 58.06 58.06 59.10 60.15 61.06 61.57
53.64 53.55 52.92 52.78 52.92 53.20 53.68 53.45 53.76 54.03 54.38 54.63 52.16 49.69 44.39 55.64 50.18 52.62 53.05 49.68 50.42 51.46 52.31 53.99 53.32 51.41 51.82 48.41 47.22 49.19 46.04 47.54 50.41 54.92 54.64 54.35 51.49 55.98 58.79 58.31 57.96 59.04 59.90 59.97 60.72
53.29 53.08 53.18 52.73 52.81 53.18 52.94 52.69 53.42 54.00 54.61 55.38 53.99 47.44 50.15 47.93 50.55 51.85 54.12 52.75 49.78 49.81 49.22 49.00 49.23 46.32 47.45 46.04 41.14 43.83 45.04 47.65 48.74 52.57 53.87 52.33 52.47 55.64 57.81 57.76 57.78 58.47 59.58 59.11 59.88
52.79 53.10 52.81 52.98 53.06 52.61 51.32 52.80 48.76 47.79 50.88 47.51 49.11 47.87 48.92 50.67 51.37 48.82 50.67 48.82 48.66 47.64 43.55 46.86 44.03 41.98 44.55 46.89 47.21 47.53 46.98 46.26 49.69 52.65 51.82 52.19 52.47 54.23 56.74 56.97 56.93 57.95 58.39 58.97 59.66
52.52 52.37 52.67 52.87 52.90 52.29 51.34 48.82 48.37 48.99 41.82 47.87 47.65 47.41 49.01 49.04 44.27 46.93 50.29 44.76 43.85 40.61 45.77 43.68 41.69 46.64 47.79 47.59 46.57 45.81 45.24 45.82 49.61 51.46 51.69 51.39 51.27 54.60 56.40 56.90 57.58 57.85 58.61 59.11 59.39
52.61 52.59 52.55 52.53 52.09 51.62 50.54 49.60 52.49 51.53 41.87 43.74 46.54 46.01 46.72 47.84 44.19 44.87 47.72 45.38 41.68 40.01 41.67 41.25 43.38 47.40 46.60 45.73 45.02 45.57 44.70 45.57 45.56 49.38 51.32 50.75 49.17 52.29 54.83 56.69 57.56 58.00 58.64 58.74 58.48
52.18 52.10 52.16 51.74 48.86 51.18 48.65 52.28 52.56 52.17 36.01 39.40 42.29 45.47 47.12 47.27 43.44 49.15 50.01 46.91 43.21 39.23 40.37 40.93 45.61 44.39 45.04 44.36 46.03 42.82 47.59 47.12 46.79 46.40 43.29 50.54 42.75 51.14 53.07 54.01 55.84 56.94 57.83 58.40 59.72
51.86 52.14 51.91 50.75 50.20 49.05 50.50 53.69 52.54 48.79 23.53 41.30 42.98 50.88 48.31 44.79 45.82 46.07 51.22 47.48 41.59 41.72 41.47 38.48 40.59 42.32 42.06 44.48 47.27 44.88 48.50 47.43 47.39 46.02 46.44 46.21 44.08 47.34 51.82 50.72 52.96 55.80 57.16 58.07 59.15
51.55 51.95 51.63 52.76 51.86 52.80 53.85 52.80 49.19 32.66 23.82 36.97 42.54 41.30 42.10 43.69 44.24 46.08 46.93 49.47 48.06 43.39 42.73 41.27 44.75 42.97 44.87 46.47 47.10 48.99 46.91 46.74 47.17 46.37 41.13 45.85 44.76 45.32 48.53 50.75 53.33 55.91 56.52 58.39 59.47
51.15 50.89 50.22 52.99 48.57 53.95 52.88 47.91 32.44 26.10 38.16 34.57 36.13 39.21 39.32 39.04 40.73 41.60 40.98 40.92 39.08 35.59 36.62 40.42 40.83 43.22 44.39 43.19 46.79 46.37 45.60 39.39 37.45 38.76 38.20 46.72 44.66 47.22 52.12 53.57 53.96 54.78 55.60 58.24 61.73
50.14 49.52 53.06 53.64 54.20 53.64 49.54 39.35 25.92 32.96 33.11 39.95 38.90 38.97 36.47 39.12 38.90 38.94 38.56 36.65 40.98 40.76 36.66 34.66 34.51 40.33 44.12 42.74 43.26 44.35 45.20 40.18 33.23 35.57 39.42 46.24 42.21 46.55 54.38 55.70 56.41 56.04 57.58 60.18 62.47
48.98 54.49 52.87 53.96 54.55 52.82 43.75 31.88 29.95 34.24 37.93 36.99 37.93 34.94 35.17 36.87 38.52 38.89 37.93 36.93 39.66 41.63 35.27 34.14 36.08 44.98 43.45 45.29 45.72 44.17 41.17 47.29 43.29 44.55 41.08 45.00 48.53 52.20 54.60 53.83 55.66 55.52 57.03 61.37 62.57
49.00 50.90 51.02 54.97 54.97 49.70 39.55 33.58 36.31 39.76 39.23 38.75 32.79 33.36 31.20 35.18 34.38 34.62 36.36 39.87 39.51 42.46 43.05 38.55 32.39 41.46 45.23 44.63 45.75 45.35 47.98 41.54 43.65 36.45 37.13 42.35 45.10 45.77 50.78 52.41 53.89 54.81 57.40 61.55 62.98
49.77 46.66 52.23 53.93 53.77 45.53 35.39 36.30 38.45 41.65 41.36 37.56 35.58 34.59 34.72 34.18 36.16 34.64 35.15 39.68 42.08 40.98 42.86 40.76 37.28 36.65 43.20 42.01 40.44 43.35 42.76 44.42 46.75 44.66 39.48 39.24 43.32 52.38 51.36 52.61 54.08 55.47 59.70 61.91 62.35
49.44 42.08 52.41 53.67 41.98 43.56 37.57 39.26 41.20 39.59 42.62 40.22 39.66 37.85 35.27 36.24 34.53 35.83 34.43 36.24 40.27 42.64 37.66 41.06 37.62 34.37 38.27 45.64 45.40 46.60 44.61 45.73 42.19 41.05 44.30 44.47 44.58 55.99 55.56 55.08 56.58 58.87 61.04 62.15 62.82
46.20 46.69 52.72 51.08 37.12 37.25 40.15 38.95 41.05 39.82 40.48 39.48 38.33 39.89 40.44 36.66 33.14 36.15 36.78 40.95 41.20 40.20 37.70 38.57 36.91 32.30 36.16 41.74 46.17 43.83 45.14 47.37 48.50 48.68 44.25 41.58 44.19 55.29 54.58 55.80 57.44 59.72 60.96 61.92 62.35
46.70 40.61 45.58 46.89 45.02 39.57 36.92 37.17 37.02 42.04 40.68 41.21 39.58 40.65 39.02 36.98 39.22 34.95 36.61 40.09 41.08 40.68 41.57 40.78 35.67 34.59 32.54 38.01 41.59 41.76 43.69 46.45 47.28 43.04 45.43 45.76 46.71 50.34 54.11 55.40 57.22 60.06 61.07 61.55 61.91
47.32 42.42 44.58 37.55 39.34 39.80 39.61 38.56 36.40 36.04 40.65 41.33 38.24 38.59 37.06 34.04 35.88 35.58 37.94 39.46 40.96 42.14 40.36 37.99 33.34 36.52 36.87 38.36 38.83 40.80 44.33 45.17 45.82 47.42 44.57 47.34 47.09 51.69 55.19 56.13 57.81 60.84 61.18 60.81 61.40
43.01 41.64 43.38 40.36 42.02 39.81 39.05 37.91 36.79 37.68 38.51 37.39 36.87 38.91 39.05 35.57 36.86 34.84 37.84 38.22 36.88 41.07 39.15 39.74 33.14 37.12 34.54 36.76 38.60 38.39 43.84 45.59 46.97 47.91 48.14 48.76 48.31 54.91 57.84 59.15 58.57 59.93 60.06 59.88 60.88
48.15 48.10 42.36 40.52 40.29 39.00 38.26 38.89 38.71 40.31 40.68 41.55 40.24 38.48 38.03 39.39 42.48 43.30 43.28 42.40 41.32 39.39 37.98 37.33 37.21 35.07 30.55 36.14 36.40 36.15 43.76 45.94 47.09 50.33 50.10 46.43 51.24 55.94 55.33 55.87 57.64 59.73 60.35 60.27 60.77
MSLP
1021.19 1020.88 1020.55 1020.26 1019.70 1019.44 1019.05 1018.69 1018.46 1018.12 1017.65 1017.40 1016.97 1016.22 1015.75 1015.53 1014.76 1013.39 1011.78 1009.58 1009.20 1009.28 1009.41 1008.62 1008.28 1007.97 1007.85 1007.64 1007.18 1007.11 1006.34 1004.25 1003.08 1001.93 1000.79 999.76 999.02 998.55 998.67 998.94 999.31 999.12 999.45 999.63 999.51
1021.19 1020.80 1020.41 1020.13 1019.90 1019.52 1019.11 1018.80 1018.45 1018.16 1017.67 1017.45 1016.92 1016.42 1016.03 1015.55 1014.34 1011.45 1009.04 1008.64 1008.83 1008.79 1008.82 1008.07 1007.35 1007.39 1007.12 1006.78 1006.62 1006.31 1005.04 1003.49 1002.55 1001.60 1000.67 999.81 999.29 998.95 998.97 999.34 999.74 999.94 999.68 999.06 999.09
1021.14 1020.70 1020.40 1020.12 1019.78 1019.47 1019.13 1018.83 1018.54 1018.14 1017.76 1017.40 1016.98 1016.63 1016.22 1015.38 1012.70 1008.48 1008.80 1008.66 1008.70 1008.51 1008.39 1007.83 1007.17 1006.54 1006.44 1006.33 1005.68 1005.24 1003.53 1003.37 1002.22 1001.20 1000.64 999.88 999.18 999.27 999.14 998.78 998.78 998.92 998.82 998.95 998.96
1021.22 1020.77 1020.31 1019.88 1019.48 1019.17 1018.91 1018.55 1018.15 1017.78 1017.40 1017.17 1016.79 1016.46 1015.82 1015.08 1010.81 1008.04 1008.52 1008.57 1008.82 1008.55 1008.59 1008.30 1007.78 1006.64 1005.48 1005.12 1004.90 1004.12 1002.94 1002.70 1001.83 1001.13 1000.64 999.79 999.42 999.07 999.04 998.74 998.59 998.61 998.68 998.86 998.90
1021.23 1020.81 1020.37 1019.89 1019.35 1018.74 1018.19 1017.78 1017.47 1017.22 1017.02 1016.88 1016.71 1016.31 1015.19 1012.33 1009.32 1007.85 1008.34 1008.17 1008.05 1008.02 1007.83 1007.49 1007.12 1006.48 1004.71 1004.33 1004.02 1002.49 1001.98 1001.73 1001.03 1000.54 1000.07 999.76 999.14 998.93 998.70 998.79 998.41 998.44 998.44 998.41 998.64
1021.17 1020.76 1020.28 1019.77 1019.24 1018.74 1018.19 1017.61 1017.12 1016.71 1016.47 1016.32 1016.17 1016.09 1015.04 1011.83 1008.61 1007.44 1007.01 1007.23 1007.31 1006.97 1006.45 1006.15 1005.80 1005.91 1004.67 1003.57 1003.05 1001.88 1001.23 1000.78 1000.24 999.85 999.49 999.13 998.68 998.91 998.46 998.45 997.94 997.88 997.86 998.04 998.21
1020.98 1020.52 1020.03 1019.49 1018.93 1018.35 1017.78 1017.26 1016.79 1016.38 1016.04 1015.79 1015.75 1015.44 1013.46 1010.47 1008.70 1007.96 1007.81 1007.50 1007.01 1006.65 1006.21 1005.58 1005.00 1005.02 1004.34 1003.55 1002.68 1001.78 1000.82 1000.10 999.29 999.47 998.62 999.22 997.70 997.66 998.08 997.95 997.64 997.65 997.45 997.34 997.35
1020.87 1020.37 1019.74 1019.06 1018.42 1017.75 1017.08 1016.48 1015.93 1015.64 1015.39 1015.16 1015.07 1014.64 1011.51 1008.77 1008.02 1007.81 1007.40 1006.99 1006.81 1006.74 1006.54 1006.15 1005.61 1004.69 1003.74 1003.47 1002.69 1001.45 1001.01 999.20 998.34 999.12 997.46 999.31 997.02 997.13 997.58 997.39 997.03 997.05 996.89 996.69 996.64
1020.89 1020.41 1019.85 1019.23 1018.52 1017.78 1016.88 1015.83 1014.70 1014.32 1014.37 1014.44 1014.32 1013.21 1009.55 1006.89 1007.22 1007.06 1006.97 1006.52 1006.16 1006.00 1005.89 1005.87 1005.94 1005.05 1004.37 1003.19 1002.28 1001.16 999.54 998.76 997.08 998.62 998.18 997.99 996.90 995.86 996.53 996.52 996.09 996.29 996.24 996.04 995.81
1020.78 1020.19 1019.58 1018.88 1018.09 1017.27 1016.36 1015.02 1013.00 1013.66 1013.10 1012.74 1012.33 1011.43 1008.19 1006.45 1005.85 1005.85 1006.24 1006.25 1005.99 1005.93 1005.67 1005.44 1005.28 1004.84 1003.92 1002.29 999.59 999.58 999.78 997.90 997.30 997.78 997.13 996.45 996.04 995.32 995.37 995.29 994.96 994.94 994.95 995.13 995.27
1020.59 1019.98 1019.32 1018.56 1017.67 1016.91 1016.17 1013.69 1011.28 1011.63 1011.66 1010.77 1008.99 1008.17 1006.46 1005.62 1005.35 1005.59 1005.76 1005.67 1005.74 1005.66 1005.01 1004.74 1004.52 1002.21 999.42 1001.36 1000.53 1000.01 998.75 997.47 997.12 997.18 996.68 995.96 995.70 995.19 994.61 994.47 994.28 994.22 994.29 994.45 994.72
1020.50 1019.84 1019.01 1018.17 1017.20 1016.33 1015.78 1013.42 1012.04 1012.03 1010.24 1009.41 1008.20 1007.01 1006.42 1006.22 1005.25 1005.08 1005.47 1005.55 1005.42 1004.91 1004.55 1004.33 1001.78 999.28 1002.44 1001.09 1000.68 999.97 998.71 997.44 996.82 996.71 996.40 995.60 995.08 994.70 994.25 993.93 994.00 993.84 993.82 994.05 994.22
1020.27 1019.51 1018.73 1017.87 1016.88 1015.31 1013.95 1012.44 1012.10 1011.57 1010.29 1007.84 1005.56 1005.32 1004.94 1004.86 1004.10 1004.21 1004.80 1004.89 1004.83 1004.53 1003.95 1002.88 1000.03 1002.15 1001.23 1000.52 999.81 998.76 998.10 997.85 997.23 997.25 996.46 996.05 994.90 994.26 993.91 993.67 993.51 993.35 993.40 993.43 993.49
1020.07 1019.23 1018.52 1017.58 1016.58 1014.31 1012.91 1012.37 1011.90 1011.67 1010.03 1004.82 1003.12 1003.14 1003.50 1003.63 1003.31 1003.47 1003.42 1003.86 1004.01 1003.79 1003.69 1002.21 1001.62 1000.87 1000.05 998.94 999.13 997.68 997.87 997.71 997.35 997.13 996.05 996.20 994.08 993.23 993.38 992.78 992.47 992.20 992.14 992.02 992.01
1019.80 1018.88 1018.09 1017.85 1016.49 1014.12 1013.55 1012.75 1012.37 1012.48 1009.38 1004.34 1003.92 1003.29 1002.96 1003.53 1002.62 1002.40 1002.87 1003.12 1003.28 1003.18 1003.57 1000.67 1000.89 1000.25 999.25 997.43 998.79 996.29 998.01 997.25 996.90 996.55 996.33 995.73 994.99 992.75 993.23 992.33 991.84 991.30 990.76 990.57 990.60
1019.47 1018.77 1018.02 1015.43 1016.15 1014.14 1013.35 1013.42 1013.47 1012.90 1009.14 1007.21 1006.52 1005.74 1005.05 1004.06 1003.46 1002.15 1002.56 1002.72 1002.65 1002.68 1002.50 1001.14 1000.97 1000.09 998.63 998.39 998.16 997.62 997.71 997.35 996.92 996.22 995.06 994.29 994.39 992.37 992.16 991.85 990.91 990.03 989.73 989.95 989.80
1019.15 1018.53 1018.09 1016.63 1014.99 1014.08 1014.68 1014.07 1013.58 1011.83 1010.32 1008.05 1006.80 1005.85 1005.03 1004.07 1003.28 1002.71 1002.16 1002.17 1002.60 1002.80 1002.02 1001.20 1000.70 999.82 999.09 998.00 997.82 997.18 996.97 996.37 996.13 995.20 993.04 993.93 993.26 991.55 991.41 990.75 989.93 989.46 989.44 989.67 990.18
1018.60 1017.90 1016.59 1015.47 1015.21 1014.61 1014.69 1014.27 1013.16 1011.82 1009.99 1007.68 1006.82 1006.01 1005.27 1004.69 1003.88 1003.30 1002.73 1002.30 1002.29 1002.49 1002.92 1001.64 999.69 999.10 998.42 997.21 996.55 996.23 995.64 994.70 994.04 993.81 993.39 993.23 991.78 990.25 990.02 989.49 988.99 989.23 989.54 989.69 990.51
1018.09 1015.39 1015.32 1014.83 1015.15 1014.71 1014.76 1013.81 1012.79 1010.42 1009.20 1008.10 1007.21 1007.32 1007.04 1007.43 1006.23 1004.57 1003.35 1002.85 1002.90 1003.31 1003.63 1002.43 1000.15 998.76 997.84 997.56 996.81 995.15 995.17 994.56 994.20 993.55 992.83 990.84 989.65 989.24 988.84 988.30 988.11 988.59 989.21 990.07 991.04
1018.19 1016.05 1014.44 1014.64 1015.18 1014.85 1014.67 1013.13 1011.46 1009.85 1009.15 1008.57 1008.29 1009.75 1008.44 1007.44 1007.04 1006.64 1004.85 1004.62 1004.06 1003.96 1005.36 1003.93 1002.48 1000.05 997.88 997.15 996.11 995.22 994.70 994.11 993.07 992.56 991.46 990.54 988.86 988.04 987.78 987.70 987.85 988.40 988.81 990.29 991.54
1017.12 1014.49 1014.04 1014.24 1014.53 1014.87 1014.08 1012.11 1010.78 1009.84 1009.24 1008.64 1008.42 1008.97 1009.07 1008.24 1007.67 1006.87 1006.65 1005.70 1005.85 1004.79 1004.67 1004.43 1003.60 1000.84 999.41 996.14 995.22 994.53 993.47 993.01 992.94 992.42 991.24 989.79 988.06 987.23 987.52 987.57 987.89 987.97 988.71 990.28 991.68
1016.13 1013.47 1013.36 1013.57 1014.26 1014.33 1013.41 1012.07 1010.98 1010.89 1009.06 1008.56 1008.98 1008.86 1008.74 1008.41 1007.81 1006.87 1007.20 1008.03 1008.41 1006.63 1005.81 1005.52 1004.85 1002.22 999.42 996.20 995.19 994.12 992.72 992.38 991.24 991.15 991.07 989.87 988.04 987.40 987.62 987.70 988.00 987.77 989.16 990.60 991.87
1016.36 1013.18 1013.21 1013.29 1013.72 1013.91 1013.51 1012.32 1011.11 1010.11 1009.78 1008.86 1008.33 1008.14 1007.94 1007.77 1007.80 1007.88 1006.94 1007.51 1007.60 1007.31 1007.11 1007.42 1005.03 1003.07 999.89 997.82 995.33 993.56 992.78 992.00 991.77 991.58 990.46 989.75 988.24 987.45 987.71 987.99 987.90 988.38 989.69 991.05 992.31
1016.92 1013.84 1012.76 1013.25 1013.76 1013.99 1013.39 1012.58 1011.75 1010.85 1010.06 1009.51 1008.92 1008.29 1008.04 1007.69 1007.14 1007.46 1006.88 1006.45 1006.90 1006.70 1007.49 1008.09 1006.42 1003.91 1000.83 998.97 997.96 995.53 993.26 991.75 991.07 990.40 989.59 988.68 987.87 987.70 987.86 988.27 988.46 988.98 990.14 991.24 992.30
1016.93 1014.92 1014.99 1014.09 1014.04 1013.99 1013.55 1012.80 1011.54 1010.59 1010.32 1009.68 1009.35 1007.99 1007.65 1007.19 1006.46 1005.95 1006.10 1005.56 1005.77 1006.29 1007.03 1008.05 1006.18 1004.41 1002.69 1001.79 1000.27 997.97 993.12 990.90 989.75 989.65 989.25 988.37 987.93 987.60 988.02 988.63 989.07 989.46 990.33 991.39 992.28
1017.79 1017.11 1016.55 1015.79 1014.40 1013.76 1013.11 1012.15 1011.46 1011.00 1010.67 1009.74 1009.32 1008.76 1007.87 1007.34 1006.64 1006.19 1005.48 1005.22 1005.44 1005.34 1005.95 1006.98 1005.83 1004.02 1003.02 1001.80 1000.73 997.96 993.19 990.04 989.05 989.15 989.16 988.36 987.89 987.88 988.30 989.25 989.50 990.16 990.78 991.60 992.52
1018.37 1018.11 1017.80 1016.21 1014.51 1013.39 1013.00 1012.25 1011.78 1011.13 1010.24 1009.63 1009.03 1009.26 1007.51 1006.89 1006.40 1005.74 1004.84 1004.50 1004.18 1004.06 1004.24 1005.20 1005.18 1003.47 1002.53 1002.47 1001.41 996.42 991.54 989.34 988.74 988.70 988.76 989.23 988.48 989.03 989.70 990.24 991.01 990.95 991.13 991.73 992.67
Wind_Speed
17 16 16 16 16 16 16 16 15 15 16 16 17 19 21 20 22 17 17 15 8 10 4 10 12 14 17 19 19 19 16 17 23 23 21 19 19 17 9 15 9 17 13 13 10
17 16 17 17 16 16 16 16 15 15 15 16 17 17 19 19 22 21 18 12 8 10 11 15 16 16 16 17 19 19 17 26 23 20 21 21 20 17 17 14 17 13 25 15 12
17 18 17 17 17 16 15 15 15 15 15 15 16 17 18 20 13 8 8 8 6 9 15 17 19 19 22 21 22 24 26 24 26 25 25 27 25 20 23 24 17 19 15 21 12
18 18 19 20 20 19 18 17 16 15 15 15 15 17 20 12 8 7 10 11 6 8 14 17 18 25 26 27 26 29 30 28 28 26 26 28 26 27 25 26 22 22 16 18 12
17 18 19 20 20 21 22 21 20 18 16 14 14 15 13 11 15 7 10 11 9 14 18 21 24 25 30 27 28 31 29 29 29 29 28 29 29 28 28 29 22 23 21 18 18
17 18 19 20 20 20 19 20 20 20 19 17 14 12 14 23 14 16 12 9 13 14 18 20 23 24 26 30 29 30 30 31 31 31 29 30 29 28 27 25 26 23 20 21 21
17 17 19 20 21 21 20 19 19 20 21 20 16 12 18 23 19 22 21 16 16 16 20 19 19 23 26 31 32 31 34 32 31 31 32 27 32 31 25 24 23 25 24 22 20
18 20 22 23 24 23 23 22 22 22 22 20 16 13 15 18 18 23 21 22 22 21 21 20 21 24 22 25 31 33 33 30 29 30 35 27 30 30 25 27 23 24 22 20 24
18 17 19 20 21 22 24 27 30 27 19 12 9 12 15 10 13 18 18 18 19 17 18 17 21 21 18 21 22 26 23 34 37 29 32 33 29 33 25 26 25 23 22 19 20
18 18 18 21 23 23 25 30 28 18 13 11 13 11 15 12 14 7 4 6 9 15 18 22 16 19 19 20 26 22 31 35 29 26 28 29 28 28 25 27 25 23 16 17 18
21 20 19 21 23 23 19 14 9 5 12 17 16 16 23 15 5 11 12 11 12 15 18 21 18 27 42 28 29 26 31 32 31 27 29 25 26 27 23 20 20 18 22 16 19
22 22 22 23 25 25 14 11 15 13 20 19 24 29 27 25 26 21 15 18 15 18 18 19 30 35 23 30 30 33 32 30 27 25 24 22 23 21 21 21 19 20 16 15 17
21 22 23 23 23 17 10 11 11 16 18 29 34 27 24 25 25 22 20 21 23 22 22 23 34 25 28 31 30 32 30 26 29 25 26 22 24 23 23 22 22 21 18 20 22
23 23 23 22 13 12 9 16 14 13 11 14 12 15 16 11 13 14 18 20 22 24 23 25 24 29 30 36 31 30 27 28 26 22 17 18 18 21 17 21 19 17 16 18 17
23 25 24 11 11 9 16 17 14 6 8 5 8 4 4 14 4 7 14 15 16 19 22 30 21 28 33 35 29 33 25 25 25 23 21 23 17 15 17 18 19 20 21 20 19
24 24 22 3 8 11 14 12 8 5 6 13 8 13 11 13 22 12 11 8 10 16 20 28 24 29 28 27 32 25 24 27 25 18 18 22 21 15 18 19 22 18 6 10 10
25 24 17 10 9 11 12 7 5 6 17 8 8 7 14 13 14 12 16 15 13 10 18 23 24 30 29 29 29 32 21 15 17 17 22 17 19 16 18 19 20 14 8 7 11
26 24 6 7 9 10 6 3 5 12 13 20 17 18 15 17 19 16 20 17 11 17 13 20 17 26 21 31 25 30 25 16 25 13 18 22 21 22 19 23 17 4 8 5 8
28 5 8 4 7 7 3 5 5 10 14 18 19 16 14 12 20 17 14 14 5 9 10 12 17 23 28 27 29 26 29 25 23 20 16 15 17 25 19 13 14 10 10 12 10
9 10 4 8 5 5 4 10 12 14 14 17 16 0 15 22 10 7 12 9 8 4 12 7 17 21 25 28 33 29 22 26 20 22 18 19 17 4 11 8 4 10 10 16 13
6 5 4 3 1 4 6 14 22 22 19 14 15 15 13 16 18 13 12 7 17 6 9 15 14 24 23 23 28 24 26 26 17 17 14 13 9 3 2 3 7 13 15 17 16
6 5 6 2 3 4 9 21 21 10 14 17 8 12 8 17 20 19 10 11 11 15 11 11 6 15 25 24 29 29 25 24 17 23 17 14 11 11 5 6 5 13 17 16 17
7 7 4 6 4 8 16 17 19 16 19 18 13 16 15 16 11 10 10 10 2 3 3 8 6 10 14 15 19 28 26 23 20 11 19 16 10 11 9 7 5 13 17 15 17
7 7 3 6 4 12 16 16 19 14 14 18 20 15 14 15 18 7 9 5 5 4 2 5 6 16 11 4 13 16 28 29 25 18 15 18 9 10 11 9 7 18 16 18 17
5 7 12 7 10 11 15 16 18 17 14 18 9 18 17 17 17 15 8 14 5 3 3 3 10 20 20 17 21 29 29 33 30 23 20 17 17 13 14 13 4 14 16 17 17
6 6 8 14 13 12 12 15 17 16 19 15 14 20 16 17 19 18 19 17 7 7 4 8 6 16 13 12 20 30 30 30 27 28 25 17 20 10 18 17 8 12 16 16 16
5 6 2 9 13 11 11 15 21 20 9 19 14 18 17 17 18 23 20 18 18 19 14 11 6 5 3 10 19 21 24 25 25 25 24 14 6 18 19 16 10 5 14 13 14
Wind_Direction
357 358 356 354 353 350 346 345 341 336 335 331 327 328 327 322 310 273 248 243 255 177 198 258 213 225 231 228 234 233 252 249 250 258 269 278 287 297 291 314 292 301 302 297 289
353 351 351 349 347 345 342 337 333 328 328 324 326 321 318 320 304 277 253 239 161 158 229 229 216 220 222 230 231 227 243 237 244 257 269 276 277 269 288 293 281 285 299 270 293
348 347 346 343 341 338 333 330 326 322 320 318 321 316 311 314 285 266 71 74 141 184 234 253 264 228 230 238 230 228 238 248 258 265 264 268 282 293 286 282 300 298 293 292 302
350 346 342 339 336 332 328 324 320 317 315 315 318 317 312 293 258 105 152 132 149 222 237 249 255 253 236 233 235 242 238 243 256 261 265 270 280 281 290 293 291 291 267 275 293
344 341 338 334 332 329 327 324 320 314 311 311 311 316 313 248 243 240 183 185 203 210 221 228 233 237 242 235 242 237 243 249 252 256 257 265 270 279 280 282 289 286 279 283 292
337 336 333 330 326 322 317 315 312 308 306 307 304 302 270 266 263 257 243 274 268 254 246 229 231 235 251 244 241 251 248 252 258 258 262 267 274 275 278 283 284 282 273 272 268
338 338 336 331 326 320 313 305 297 295 297 296 292 281 267 257 292 298 301 289 280 269 258 260 260 229 244 251 258 257 256 260 255 258 263 269 263 263 268 269 279 283 280 274 273
340 339 336 333 328 322 315 306 296 291 291 286 277 270 265 262 259 255 259 253 247 251 259 267 273 285 273 256 260 251 257 260 253 254 257 259 265 265 265 273 268 273 279 274 268
337 333 329 324 316 310 305 302 298 292 282 258 246 218 267 238 229 242 244 255 264 261 253 244 244 256 265 250 249 247 248 248 250 245 263 258 264 266 255 256 256 259 254 260 274
338 334 327 322 316 311 308 294 273 280 250 226 235 232 240 257 266 158 289 306 245 246 249 243 229 235 236 233 225 221 237 243 260 256 257 256 252 264 251 254 257 252 264 262 263
338 333 327 319 313 311 321 308 344 237 219 269 287 219 295 288 262 223 235 256 254 251 241 225 217 221 219 221 244 240 241 246 250 252 254 253 258 258 272 273 272 259 244 259 263
333 330 325 320 314 312 298 289 336 325 295 282 269 269 268 275 272 266 272 259 249 251 233 229 224 227 232 227 234 242 256 259 267 268 269 279 281 278 267 273 279 282 287 289 289
328 326 325 318 313 295 276 328 332 294 290 276 258 258 258 243 244 249 235 239 242 249 239 229 240 230 235 234 237 235 237 247 259 270 273 282 275 270 270 272 265 266 262 263 256
327 324 325 322 285 318 312 338 323 346 286 283 221 226 226 247 268 247 243 231 234 240 246 247 243 241 233 235 229 243 234 244 250 255 259 259 273 254 262 263 262 267 264 258 259
326 327 326 314 316 318 340 338 332 345 274 79 46 80 189 205 202 245 193 217 244 254 229 242 246 237 237 242 227 246 245 251 248 251 260 253 258 268 268 270 267 261 254 247 239
323 327 331 313 218 291 337 331 325 248 244 16 5 351 339 324 308 260 189 236 259 240 242 255 255 250 249 242 250 242 240 250 257 258 248 242 248 262 265 272 273 273 306 303 275
320 321 317 311 324 349 339 323 277 274 322 342 308 320 312 303 283 275 273 216 219 254 249 247 243 255 251 253 231 242 228 231 229 231 245 247 248 265 268 277 275 278 306 275 57
319 313 285 287 323 341 324 303 291 341 310 352 349 333 316 317 294 285 276 266 253 235 235 276 251 222 237 239 235 226 232 224 221 222 244 243 245 254 248 248 253 242 267 128 112
313 264 235 272 351 318 331 282 330 293 347 338 333 354 341 329 314 308 286 258 271 3 296 315 280 274 215 241 238 226 227 237 245 231 255 255 229 234 243 251 249 215 230 133 127
312 300 276 343 22 311 288 286 299 349 331 329 343 281 310 330 305 255 309 346 279 233 227 284 288 286 279 209 243 243 217 225 220 236 235 231 253 181 178 205 275 173 194 126 129
267 225 112 262 245 302 294 316 327 336 324 318 335 314 337 327 326 333 288 279 330 270 310 295 262 272 286 260 210 224 233 220 237 230 239 253 229 136 51 119 221 173 144 133 136
295 283 138 284 225 281 304 327 312 306 313 310 345 301 288 285 299 295 33 11 334 334 312 321 314 261 266 264 213 231 226 220 218 206 237 268 264 111 104 167 226 83 117 134 135
291 299 155 242 342 332 309 327 324 349 330 324 318 313 318 321 315 326 320 165 282 302 12 349 234 261 250 261 249 229 225 230 238 221 215 234 236 152 151 207 158 134 127 133 134
287 311 25 357 341 310 323 316 322 325 325 325 313 314 320 312 303 224 285 310 229 306 168 294 253 255 250 266 337 274 234 229 222 213 220 224 140 161 145 140 183 121 136 140 150
254 349 13 312 327 316 301 301 320 341 337 328 304 331 324 319 312 312 254 282 241 249 157 237 270 269 270 275 298 288 241 227 215 203 226 231 209 159 131 120 109 122 140 146 145
325 345 354 293 320 310 325 314 329 328 325 316 320 310 308 311 315 315 308 306 315 265 213 202 277 291 266 287 286 290 289 222 212 192 221 233 211 168 104 75 114 141 147 156 143
349 293 212 300 305 327 307 325 313 319 310 302 338 318 311 308 308 304 288 286 277 265 267 282 286 268 256 231 284 281 250 233 208 188 213 211 159 90 84 84 57 31 143 147 151